星链-11365 (STARLINK-11365)

导读

STARLINK-11365是美国SpaceX星链计划中的一颗卫星,于2025年2月4日发射。星链项目旨在构建全球卫星互联网星座,为全球偏远地区等提供高速互联网接入服务。该卫星加入星座后,进一步扩大了星链网络的覆盖范围,提升了全球卫星互联网服务的容量与稳定性,推动低轨卫星互联网发展。

Basic Information
目录编号:
62886
目录名称:
STARLINK-11365
国际标识:
2025-024H
轨道中心:
EARTH
卫星名称:
星链-11365
卫星全名:
星链-11365 (STARLINK-11365)
卫星状态:
在轨 (已飞行578 天)
发射日期:
2025-02-04 UTC
国别 :
美国 (US)
星等 :
--
Orbit Information
数据来源 国际轨道数据
星历时间: 2026-09-05T11:28:14+0800
6小时前
查看轨道信息
半长轴: 6734.601km
偏心率: 0.0002063
轨道倾角: 43.002°
近地点辐角 250.443°
升交点赤经 179.451°
平近点角 109.622°
近地点: 355.074km
远地点: 357.854km
周期: 91.670分钟
每日圈数: 15.708509
Detailed Information
固有亮度:
5
最大亮度:
2.5
卫星平台:
Starlink V1.0
覆盖范围:
全球
运营商:
太空探索技术公司
运营商所在国:
美国
制造商(研发单位):
太空探索技术公司
制造商所在国:
美国
使用方式:
暂无
Satellite Introduction
Starlink 计划是 SpaceX 推出的全球卫星互联网项目,通过发射低轨道卫星,为全球尤其是偏远地区提供高速、低延迟的互联网服务。自 2019 年起,Starlink 已部署数千颗卫星,旨在缩小全球数字鸿沟,推动互联网普及。该项目还为军事、航空等行业提供通信支持,带来广泛经济效益。
2D Orbit Map
3D Orbit Map
Orbit Altitude Analysis Chart
Orbit Inclination Analysis Chart
Orbit Comprehensive Analysis Chart
View Comprehensive Chart
Conjunction Data List
Event ID Objects TCA Miss Dist (km) Collision Risk Probability Collision Risk Index (CRI) Action
CDM_260906-072506-288606-313621
2026-09-06T
07:25:33+0000
1.511 km
极远距离
3.582887E-6 低风险 0.46